Tracking 18942 objects as of 18-Jan-2018
HD Live streaming from Space Station
objects crossing your sky now

SL-12 DEB

Track SL-12 DEB now!
10-day predictions


NORAD ID: 42973
Int'l Code: 2010-041N
Perigee: 614.9 km
Apogee: 18,888.0 km
Inclination: 64.8 °
Period: 339.6 minutes
Semi major axis: 16122 km
RCS: Unknown
Launch date: September 2, 2010
Source: Commonwealth of Independent States (former USSR) (CIS)
Launch site: TYURATAM MISSILE AND SPACE COMPLEX (TTMTR)

Note: This is SATELLITE DEBRIS
aabbcc
Your satellite tracking list
Your tracking list is empty




NASA's NSSDC Master Catalog

Two Line Element Set (TLE):
1 42973U 10041N   17356.44907436  .00005211  00000-0  26876-1 0  9999
2 42973  64.8039 137.0980 5666985  80.5494 336.0597  4.24089567  4642
Source of the keplerian elements: AFSPC